This is the latest recevied weather packets stored in our database for station/object AA9VI-10. If no packets are shown the sender has not sent any weather packets the latest 10 day(s).
| Time | Temp. | Humidity | Pressure | Rain* | Wind** | Luminosity | Snow |
|---|---|---|---|---|---|---|---|
| 1777689616 | 1.11° C | 79% | 1018.8 hPa | 0 mm | - | - | - |
| 1777689016 | 1.67° C | 80% | 1018.7 hPa | 0 mm | - | - | - |
| 1777688416 | 1.67° C | 79% | 1018.7 hPa | 0 mm | - | - | - |
| 1777687816 | 2.22° C | 79% | 1018.6 hPa | 0 mm | - | - | - |
| 1777687216 | 2.22° C | 78% | 1018.4 hPa | 0 mm | - | - | - |
| 1777686616 | 2.22° C | 77% | 1018.3 hPa | 0 mm | - | - | - |
| 1777686016 | 2.78° C | 77% | 1018.1 hPa | 0 mm | - | - | - |
| 1777685416 | 2.78° C | 77% | 1018.1 hPa | 0 mm | - | - | - |
| 1777684815 | 2.78° C | 78% | 1018.1 hPa | 0 mm | - | - | - |
| 1777684216 | 2.78° C | 79% | 1018.1 hPa | 0 mm | - | - | - |
| 1777683616 | 2.78° C | 81% | 1018 hPa | 0 mm | - | - | - |
| 1777683016 | 2.78° C | 80% | 1018 hPa | 0 mm | - | - | - |
| 1777682416 | 2.78° C | 80% | 1018 hPa | 0 mm | - | - | - |
| 1777681815 | 3.33° C | 79% | 1017.8 hPa | 0 mm | - | - | - |
| 1777681216 | 3.33° C | 78% | 1017.8 hPa | 0 mm | - | - | - |
| 1777680616 | 3.89° C | 74% | 1018 hPa | 0 mm | - | - | - |
| 1777680016 | 4.44° C | 71% | 1017.9 hPa | 0 mm | - | - | - |
| 1777679416 | 5° C | 67% | 1017.8 hPa | 0 mm | - | - | - |
| 1777678816 | 5° C | 69% | 1017.6 hPa | 0 mm | - | - | - |
| 1777678216 | 5.56° C | 72% | 1017.4 hPa | 0 mm | - | - | - |
| 1777677616 | 5.56° C | 71% | 1017.5 hPa | 0 mm | - | - | - |
| 1777677016 | 6.11° C | 72% | 1017.5 hPa | 0 mm | - | - | - |
| 1777676416 | 6.11° C | 70% | 1017.5 hPa | 0 mm | - | - | - |
| 1777675816 | 6.11° C | 69% | 1017.5 hPa | 0 mm | - | - | - |
| 1777675216 | 6.11° C | 70% | 1017.4 hPa | 0 mm | - | - | - |
* Rain latest hour (hover to see other rain measurements)
** Current wind speed in m/s (hover to see current wind gust speed)